When you browse on this site, cookies collect data to enhance your experience and personalize the content and advertising you see.
Visit our Privacy Policy to learn more. By continuing to use the site, you agree to this use of cookies and data.
  • In Austria
  • List of Countries
  • For 7 days
  • Water Temperature
  • Weather Map
  • News
  • Weather Widgets
  • user-avatar
    Login

    Hourly Weather Ischgl

    Today, 27 January, Monday

    Time Temperature Precipitation Wind Pressure Humidity
    00:00 -9°C° 0 mm 1 mps 569 mmHg 91%
    01:00 -9°C° 0 mm 1 mps 569 mmHg 91%
    02:00 -9°C° 0 mm 1 mps 568 mmHg 90%
    03:00 -9°C° 0 mm 1 mps 568 mmHg 90%
    04:00 -10°C° 0 mm 1 mps 568 mmHg 90%
    05:00 -10°C° 0 mm 1 mps 568 mmHg 89%
    06:00 -10°C° 0 mm 1 mps 568 mmHg 89%
    07:00 -10°C° 0 mm 1 mps 568 mmHg 88%
    08:00 -9°C° 0 mm 1 mps 568 mmHg 85%
    09:00 -8°C° 0 mm 1 mps 569 mmHg 82%
    10:00 -6°C° 0 mm 1 mps 570 mmHg 79%
    11:00 -6°C° 0 mm 2 mps 570 mmHg 77%
    12:00 -5°C° 0 mm 2 mps 570 mmHg 75%
    13:00 -4°C° 0 mm 2 mps 570 mmHg 73%
    14:00 -4°C° 0 mm 2 mps 569 mmHg 75%
    15:00 -5°C° 0 mm 2 mps 568 mmHg 77%
    16:00 -6°C° 0 mm 2 mps 568 mmHg 79%
    17:00 -8°C° 0 mm 3 mps 567 mmHg 81%
    18:00 -9°C° 0 mm 3 mps 566 mmHg 82%
    19:00 -10°C° 0 mm 3 mps 566 mmHg 84%
    20:00 -10°C° 0 mm 3 mps 565 mmHg 85%
    21:00 -10°C° 0 mm 3 mps 565 mmHg 86%
    22:00 -10°C° 0 mm 3 mps 565 mmHg 87%
    23:00 -10°C° 0 mm 3 mps 565 mmHg 87%

    Tomorrow, 28 January, Tuesday

    Time Temperature Precipitation Wind Pressure Humidity
    00:00 -10°C° 0 mm 3 mps 564 mmHg 87%
    01:00 -10°C° 0 mm 3 mps 564 mmHg 87%
    02:00 -10°C° 0 mm 3 mps 563 mmHg 87%
    03:00 -12°C° 0 mm 3 mps 562 mmHg 86%
    04:00 -12°C° 0 mm 3 mps 561 mmHg 86%
    05:00 -12°C° 0.1 mm 3 mps 561 mmHg 88%
    06:00 -12°C° 0.1 mm 3 mps 561 mmHg 89%
    07:00 -12°C° 0.1 mm 3 mps 561 mmHg 91%
    08:00 -10°C° 0.1 mm 3 mps 561 mmHg 90%
    09:00 -9°C° 0.1 mm 3 mps 561 mmHg 88%
    10:00 -9°C° 0.1 mm 3 mps 561 mmHg 87%
    11:00 -8°C° 0.6 mm 3 mps 562 mmHg 86%
    12:00 -8°C° 0.6 mm 3 mps 562 mmHg 85%
    13:00 -6°C° 0.6 mm 2 mps 562 mmHg 84%
    14:00 -8°C° 1.2 mm 3 mps 562 mmHg 85%
    15:00 -9°C° 1.2 mm 3 mps 561 mmHg 86%
    16:00 -10°C° 1.2 mm 3 mps 561 mmHg 87%
    17:00 -12°C° 0.6 mm 2 mps 561 mmHg 89%
    18:00 -13°C° 0.6 mm 2 mps 561 mmHg 90%
    19:00 -12°C° 0.6 mm 1 mps 561 mmHg 92%
    20:00 -12°C° 0.7 mm 1 mps 561 mmHg 93%
    21:00 -12°C° 0.7 mm 1 mps 561 mmHg 94%
    22:00 -12°C° 0.7 mm 1 mps 561 mmHg 94%
    23:00 -14°C° 0.5 mm 2 mps 561 mmHg 94%

    Day after tomorrow, 29 January, Wednesday

    Time Temperature Precipitation Wind Pressure Humidity
    00:00 -14°C° 0.5 mm 2 mps 561 mmHg 94%
    01:00 -14°C° 0.5 mm 2 mps 561 mmHg 94%
    02:00 -14°C° 0.7 mm 2 mps 561 mmHg 93%
    03:00 -14°C° 0.7 mm 2 mps 561 mmHg 93%
    04:00 -14°C° 0.7 mm 2 mps 561 mmHg 93%
    05:00 -14°C° 1.3 mm 2 mps 562 mmHg 94%
    06:00 -14°C° 1.3 mm 2 mps 562 mmHg 94%
    07:00 -14°C° 1.3 mm 2 mps 562 mmHg 95%
    08:00 -13°C° 0.7 mm 2 mps 563 mmHg 92%
    09:00 -13°C° 0.7 mm 2 mps 564 mmHg 90%
    10:00 -12°C° 0.7 mm 2 mps 565 mmHg 87%
    11:00 -12°C° 0.2 mm 2 mps 565 mmHg 84%
    12:00 -12°C° 0.2 mm 2 mps 565 mmHg 81%
    13:00 -10°C° 0.2 mm 2 mps 565 mmHg 78%
    14:00 -10°C° 0.2 mm 2 mps 565 mmHg 82%
    15:00 -12°C° 0.2 mm 2 mps 565 mmHg 85%
    16:00 -12°C° 0.2 mm 2 mps 565 mmHg 89%
    17:00 -13°C° 0.4 mm 2 mps 565 mmHg 91%
    18:00 -14°C° 0.4 mm 2 mps 565 mmHg 93%
    19:00 -13°C° 0.4 mm 1 mps 565 mmHg 95%
    20:00 -14°C° 0.6 mm 2 mps 566 mmHg 95%
    21:00 -14°C° 0.6 mm 2 mps 567 mmHg 95%
    22:00 -14°C° 0.6 mm 2 mps 567 mmHg 95%
    23:00 -14°C° 0.4 mm 2 mps 567 mmHg 95%

    30 January, Thursday

    Time Temperature Precipitation Wind Pressure Humidity
    00:00 -12°C° 0.4 mm 1 mps 567 mmHg 95%
    01:00 -13°C° 0.4 mm 1 mps 568 mmHg 95%
    02:00 -15°C° 0.1 mm 2 mps 567 mmHg 95%
    03:00 -16°C° 0.1 mm 2 mps 567 mmHg 94%
    04:00 -17°C° 0.1 mm 2 mps 567 mmHg 93%
    05:00 -17°C° 0 mm 2 mps 567 mmHg 86%
    06:00 -17°C° 0 mm 2 mps 567 mmHg 79%
    07:00 -17°C° 0 mm 2 mps 567 mmHg 73%
    08:00 -15°C° 0 mm 2 mps 568 mmHg 68%
    09:00 -12°C° 0 mm 2 mps 570 mmHg 64%
    10:00 -9°C° 0 mm 2 mps 571 mmHg 60%
    11:00 -6°C° 0 mm 1 mps 571 mmHg 60%
    12:00 -4°C° 0 mm 1 mps 572 mmHg 60%
    13:00 -2°C° 0 mm 1 mps 573 mmHg 61%
    14:00 -3°C° 0 mm 1 mps 572 mmHg 63%
    15:00 -3°C° 0 mm 1 mps 572 mmHg 65%
    16:00 -3°C° 0 mm 1 mps 571 mmHg 67%
    17:00 -6°C° 0 mm 1 mps 571 mmHg 63%
    18:00 -8°C° 0 mm 2 mps 570 mmHg 59%
    19:00 -9°C° 0 mm 2 mps 570 mmHg 55%
    20:00 -9°C° 0 mm 2 mps 570 mmHg 52%
    21:00 -9°C° 0 mm 2 mps 570 mmHg 50%
    22:00 -9°C° 0 mm 2 mps 570 mmHg 47%
    23:00 -8°C° 0 mm 2 mps 570 mmHg 48%

    31 January, Friday

    Time Temperature Precipitation Wind Pressure Humidity
    00:00 -7°C° 0 mm 2 mps 571 mmHg 49%
    01:00 -6°C° 0 mm 1 mps 571 mmHg 50%
    02:00 -4°C° 0.2 mm 1 mps 571 mmHg 55%
    03:00 -4°C° 0.2 mm 1 mps 571 mmHg 61%
    04:00 -4°C° 0.2 mm 1 mps 571 mmHg 66%
    05:00 -4°C° 0.2 mm 1 mps 570 mmHg 68%
    06:00 -4°C° 0.2 mm 1 mps 570 mmHg 70%
    07:00 -6°C° 0.2 mm 1 mps 570 mmHg 72%
    08:00 -3°C° 0.1 mm 1 mps 571 mmHg 77%
    09:00 -2°C° 0.1 mm 1 mps 572 mmHg 82%
    10:00 -1°C° 0.1 mm 1 mps 573 mmHg 87%
    11:00 0°C° 0 mm 1 mps 573 mmHg 91%
    12:00 0°C° 0 mm 1 mps 573 mmHg 94%
    13:00 0°C° 0 mm 1 mps 573 mmHg 98%
    14:00 0°C° 0 mm 1 mps 573 mmHg 98%
    15:00 0°C° 0 mm 1 mps 572 mmHg 98%
    16:00 0°C° 0 mm 1 mps 572 mmHg 98%
    17:00 -1°C° 0 mm 1 mps 572 mmHg 97%
    18:00 -1°C° 0 mm 1 mps 572 mmHg 97%
    19:00 -1°C° 0 mm 1 mps 572 mmHg 96%
    20:00 -2°C° 0 mm 1 mps 572 mmHg 95%
    21:00 -2°C° 0 mm 1 mps 573 mmHg 95%
    22:00 -2°C° 0 mm 1 mps 573 mmHg 94%
    23:00 -2°C° 0 mm 1 mps 572 mmHg 94%

    1 February, Saturday

    Time Temperature Precipitation Wind Pressure Humidity
    00:00 -2°C° 0 mm 1 mps 572 mmHg 93%
    01:00 -2°C° 0 mm 1 mps 572 mmHg 93%
    02:00 -3°C° 0 mm 1 mps 572 mmHg 93%
    03:00 -3°C° 0 mm 1 mps 572 mmHg 93%
    04:00 -3°C° 0 mm 1 mps 572 mmHg 92%
    05:00 -3°C° 0 mm 1 mps 572 mmHg 92%
    06:00 -3°C° 0 mm 1 mps 572 mmHg 92%
    07:00 -3°C° 0 mm 1 mps 572 mmHg 91%
    08:00 -2°C° 0 mm 1 mps 572 mmHg 91%
    09:00 -2°C° 0 mm 1 mps 572 mmHg 90%
    10:00 -1°C° 0 mm 1 mps 573 mmHg 90%
    11:00 0°C° 0 mm 1 mps 573 mmHg 92%
    12:00 0°C° 0 mm 1 mps 573 mmHg 95%
    13:00 0°C° 0 mm 1 mps 573 mmHg 97%
    14:00 0°C° 0 mm 1 mps 573 mmHg 96%
    15:00 0°C° 0 mm 1 mps 572 mmHg 94%
    16:00 0°C° 0 mm 1 mps 572 mmHg 93%
    17:00 -1°C° 0 mm 1 mps 572 mmHg 91%
    18:00 -1°C° 0 mm 1 mps 572 mmHg 90%
    19:00 -2°C° 0 mm 1 mps 572 mmHg 89%
    20:00 -2°C° 0 mm 1 mps 572 mmHg 88%
    21:00 -2°C° 0 mm 1 mps 572 mmHg 87%
    22:00 -3°C° 0 mm 1 mps 572 mmHg 86%
    23:00 -3°C° 0.2 mm 1 mps 572 mmHg 86%
    Show more